Location: Middle Street
(51.7167°N, 0.0333°E)
Time: 23:17:52
(UTC+00:00)

COSMO-SKYMED 1 - Pass Details

Date: 20 January 2021
Orbit: 621 x 623 km, 97.9° (Epoch: 01 March)

Event Time Altitude Azimuth Distance (km) Brightness Sun altitude
Exits shadow 17:55:02 - 19° (NNE) 2,503 5.3 -13.1°
Reaches altitude 10° 17:56:16 10° 23° (NNE) 2,007 4.8 -13.3°
Maximum altitude 18:00:32 53° 100° (E) 775 2.7 -14.0°
Drops below altitude 10° 18:04:47 10° 178° (S) 1,990 5.3 -14.6°
Sets 18:07:00 0° 183° (S) 2,891 6.2 -14.9°
